Wind_Speed
12 9 4 5 7 8 9 9 9 10 12 14 13 13 14 14 14 14 14 14 15 17 18 19 20 20 22 23 25 27 28 29 31 32 33 34 35 36 36 37 37 36 36 36
11 9 9 7 7 9 10 11 10 11 14 17 17 15 16 15 15 15 15 15 16 17 18 19 20 21 23 24 25 27 28 30 31 32 34 35 36 37 37 37 37 37 37 36
11 11 10 9 8 9 10 11 11 13 16 17 17 16 16 16 16 16 16 16 17 18 19 20 21 22 24 25 26 28 29 31 32 33 35 36 38 38 38 38 38 38 37 36
13 13 12 11 9 10 11 12 13 14 16 17 17 17 16 16 16 16 17 17 18 19 20 21 22 23 24 25 27 29 30 32 33 34 36 37 38 39 39 39 39 38 38 37
15 15 14 14 13 11 11 12 14 15 16 17 17 17 16 15 15 16 17 18 19 20 21 22 23 24 26 27 29 30 32 33 35 36 37 38 39 39 39 40 39 39 38 37
16 16 16 17 14 13 12 14 14 15 16 16 17 17 17 16 16 17 18 19 20 21 22 23 24 25 27 28 29 31 33 34 36 37 38 39 40 40 40 40 40 40 38 37
15 16 17 17 16 14 14 16 16 17 17 17 18 19 19 19 18 19 19 20 21 22 23 24 25 27 28 29 30 32 33 35 37 38 38 39 40 40 41 41 41 40 38 36
17 18 19 19 20 18 17 15 17 18 19 19 20 19 19 20 20 20 21 22 22 23 24 25 27 28 29 30 32 33 34 36 37 38 39 40 40 41 41 41 40 39 38 36
21 22 20 20 20 20 18 17 18 20 21 21 21 21 20 20 21 21 22 23 23 24 25 26 28 29 30 31 32 33 35 36 37 39 40 40 41 41 41 41 40 39 37 36
22 22 22 21 19 19 21 20 21 21 22 22 22 22 22 21 22 22 23 24 24 25 27 28 29 30 32 32 34 35 36 38 38 39 41 41 41 41 42 41 40 39 37 36
24 23 21 22 19 19 20 20 21 21 22 23 22 23 24 24 24 24 25 25 26 27 28 30 31 32 33 33 35 36 38 39 39 40 41 41 41 42 42 41 40 38 37 36
25 23 23 24 21 22 22 21 22 23 23 24 24 25 25 25 25 25 26 27 28 29 30 31 33 34 34 35 36 38 39 39 39 40 41 42 42 42 41 41 40 38 37 36
26 25 25 25 24 24 24 24 24 24 24 24 25 26 27 27 27 27 28 29 29 30 31 33 35 35 35 36 37 39 40 40 40 41 42 42 42 42 41 41 40 38 36 35
26 26 26 26 25 26 26 26 26 26 26 26 27 28 28 28 28 29 30 30 31 32 33 34 35 35 36 37 39 39 40 40 41 42 43 43 43 42 41 40 39 38 36 34
26 26 27 26 27 27 27 27 27 28 28 28 28 29 29 30 30 31 31 32 33 34 35 36 37 37 38 38 39 40 40 41 41 42 43 43 42 42 41 40 39 37 35 34
28 28 27 27 27 27 28 28 28 28 29 29 30 31 31 32 32 33 34 34 35 36 37 38 38 38 39 40 40 40 41 42 42 42 42 42 41 41 41 39 38 36 35 34
28 28 28 28 28 28 29 29 29 29 30 31 32 32 33 34 34 35 35 36 37 38 39 39 39 39 39 40 41 42 42 42 42 42 42 42 42 41 40 38 37 36 34 33
28 29 29 30 30 30 30 31 31 31 32 32 33 34 34 35 36 36 37 38 39 40 40 40 40 40 41 42 42 42 43 43 43 43 42 42 41 40 39 38 36 35 33 32
31 31 31 31 32 32 32 32 32 32 33 34 34 35 36 37 37 38 38 39 40 40 40 41 41 42 43 43 44 44 44 44 44 43 42 42 41 39 38 36 35 34 33 31
31 32 32 33 33 33 33 33 34 34 35 35 36 36 37 38 39 39 40 41 42 42 42 42 43 43 44 44 45 45 44 44 44 43 43 42 40 39 37 35 34 33 32 30
33 33 34 34 34 34 35 35 35 36 37 37 38 39 39 40 41 42 42 43 43 43 43 44 44 45 45 45 45 45 45 44 44 43 42 41 39 37 36 34 32 31 30 29
34 35 35 35 35 36 36 37 38 38 39 39 40 41 41 42 42 43 43 44 44 44 44 45 45 46 46 46 46 46 45 44 44 42 41 40 38 36 34 32 31 30 29 27
35 35 36 36 37 38 38 39 39 40 41 42 43 43 43 43 44 45 45 46 46 46 46 47 47 47 47 47 46 46 45 44 43 41 39 39 37 35 33 31 30 29 27 25
37 37 38 38 39 40 41 41 42 43 44 44 45 45 45 46 46 46 47 47 47 47 48 48 48 47 47 46 46 45 44 43 42 40 38 36 35 33 31 29 28 26 25 24
38 39 39 40 41 42 43 44 45 45 45 46 47 47 47 47 47 48 47 47 48 48 48 48 47 47 46 45 45 44 43 42 40 38 37 35 33 31 30 29 27 25 24 22
40 41 42 43 44 44 45 45 46 46 47 47 48 48 48 48 48 49 48 48 48 47 47 46 46 46 45 44 44 42 41 39 37 36 35 33 31 29 28 26 24 22 21 20
43 43 44 45 45 46 46 46 46 47 47 47 48 48 48 48 48 48 47 46 46 45 45 44 44 43 42 42 41 39 38 37 35 34 32 30 28 27 25 23 22 21 20 19
Wind_Direction
270 293 299 268 267 267 270 262 264 284 293 297 300 304 310 313 315 318 321 322 324 327 329 330 331 332 333 333 335 337 338 338 337 336 336 335 334 333 331 330 329 327 324 322
253 271 285 278 259 253 253 257 260 269 279 284 293 302 306 308 311 313 315 318 322 324 326 327 329 331 332 333 334 336 336 336 336 336 336 335 334 334 333 332 331 329 326 324
240 238 243 248 250 252 257 256 256 261 270 281 292 297 299 302 306 309 311 315 318 321 324 326 328 329 330 331 332 333 334 334 334 334 335 335 335 334 333 333 332 330 328 326
244 243 254 250 245 259 258 256 258 263 273 281 287 292 295 298 301 304 308 311 315 319 322 323 325 327 329 329 330 332 333 334 333 333 334 334 334 334 334 333 333 331 329 327
249 247 250 252 247 247 259 260 258 261 269 278 283 289 293 298 301 303 306 309 313 317 319 321 323 325 326 327 328 330 331 332 333 333 333 334 334 335 334 334 334 332 330 328
255 254 254 254 249 252 262 266 262 267 274 280 284 288 294 299 301 304 305 308 311 314 316 318 321 322 324 326 327 328 330 331 332 332 333 334 334 334 334 334 333 333 332 329
257 255 255 254 257 252 251 261 270 275 278 282 285 289 294 297 300 302 304 305 308 310 312 314 318 321 322 323 325 326 327 329 330 331 332 333 334 333 333 333 333 333 332 330
260 251 246 245 250 252 249 257 268 274 280 283 286 287 290 293 297 299 301 304 306 309 311 313 316 318 321 322 322 323 324 326 328 330 331 332 333 333 333 333 333 333 332 330
258 256 252 245 251 254 267 270 272 276 280 283 286 288 290 292 295 297 300 302 304 307 309 312 315 317 319 321 323 323 323 325 327 329 330 331 331 332 333 333 332 332 333 332
264 266 265 264 259 266 269 274 275 275 278 281 284 287 289 291 294 297 299 302 303 306 309 311 314 315 316 319 322 323 323 324 326 328 329 330 331 332 333 333 333 333 332 332
265 266 269 273 266 269 274 275 275 277 280 281 283 286 289 291 293 295 298 300 303 305 307 310 312 313 314 317 319 321 322 324 325 326 329 329 330 331 332 333 333 333 332 332
263 265 269 269 269 269 271 274 276 278 279 281 284 286 289 291 292 294 297 301 304 305 305 308 311 312 313 315 317 318 318 320 324 325 327 328 328 329 330 331 332 333 333 332
264 266 267 268 266 268 272 274 276 277 277 277 280 284 288 291 292 294 297 299 302 305 306 307 310 311 312 313 315 318 318 319 321 323 325 326 327 327 328 330 331 332 333 332
261 262 263 266 267 268 270 272 274 275 277 279 281 284 288 290 291 294 297 298 301 303 304 307 310 311 312 312 313 315 317 319 321 322 323 324 325 326 327 328 329 330 331 332
263 264 264 265 266 268 269 270 272 274 276 278 280 283 287 289 292 294 296 299 300 301 303 305 307 309 310 311 313 314 316 317 319 320 322 323 323 323 324 325 326 328 329 330
263 264 265 266 266 267 268 270 272 274 276 278 280 282 285 287 290 293 296 297 299 302 303 304 306 308 309 311 313 314 314 315 317 318 319 320 321 322 322 323 324 326 327 328
263 264 265 266 267 268 270 271 273 275 277 279 281 283 285 288 290 292 295 297 299 301 301 302 305 307 307 309 311 311 312 314 315 316 317 317 318 320 320 321 322 323 325 326
264 265 266 269 271 271 272 273 275 276 278 280 282 285 287 289 290 292 293 295 297 299 300 302 304 305 306 307 308 309 311 312 313 314 315 316 316 317 318 318 319 320 322 323
263 266 268 270 271 273 275 277 278 280 281 282 283 285 287 288 290 292 293 295 296 298 300 301 303 304 305 306 307 308 309 310 310 311 312 312 313 314 314 315 316 317 319 320
264 266 269 271 273 275 276 278 280 281 283 284 285 286 288 289 290 292 293 294 295 297 298 300 301 302 303 305 305 306 306 307 307 308 308 309 309 310 311 311 313 314 315 317
266 268 270 272 274 276 278 279 281 283 284 285 286 288 289 290 290 291 292 293 295 297 298 299 300 301 302 303 304 304 304 305 305 305 305 306 306 306 307 308 309 310 311 313
269 270 272 274 275 277 279 281 282 283 285 286 287 288 290 291 291 292 293 294 295 296 297 298 299 300 300 301 302 302 303 303 303 303 303 303 303 303 304 305 305 306 307 309
271 273 274 276 277 278 280 282 283 285 286 287 288 289 290 292 293 294 294 295 296 297 297 297 298 299 299 300 301 301 301 301 301 300 299 299 300 300 301 301 301 301 302 304
275 276 276 277 279 280 282 283 285 286 287 288 289 290 291 292 293 294 295 295 295 296 296 296 297 298 298 299 299 299 299 299 299 297 297 297 297 297 297 297 297 297 299 300
277 277 278 279 280 281 283 284 286 287 288 289 290 291 292 293 294 295 295 295 295 295 296 296 296 297 297 297 297 297 297 297 295 294 293 294 294 293 292 293 293 293 295 296
278 280 280 281 281 282 284 285 287 288 289 290 291 292 293 293 294 295 295 295 295 295 295 295 296 296 296 296 296 296 296 295 293 290 289 289 288 287 288 288 289 290 290 291
279 281 282 283 283 284 285 286 287 288 289 290 291 292 293 293 294 294 294 295 295 295 295 295 295 296 296 295 296 296 295 294 292 289 287 286 284 283 283 283 283 285 286 285
Height
5844 5844 5845 5848 5849 5850 5851 5850 5850 5849 5848 5845 5844 5845 5844 5843 5842 5841 5840 5838 5837 5835 5832 5830 5827 5824 5821 5817 5814 5809 5805 5800 5795 5790 5784 5778 5772 5766 5760 5753 5747 5741 5735 5729
5844 5843 5844 5844 5847 5849 5849 5849 5849 5848 5847 5844 5843 5842 5842 5841 5840 5839 5837 5836 5834 5832 5830 5827 5824 5821 5818 5814 5810 5806 5801 5796 5791 5785 5780 5773 5767 5761 5754 5747 5741 5734 5728 5721
5841 5842 5842 5844 5845 5846 5846 5846 5846 5846 5845 5842 5841 5841 5840 5839 5838 5836 5835 5833 5831 5829 5827 5824 5821 5818 5814 5811 5807 5802 5797 5792 5786 5781 5775 5768 5762 5755 5748 5741 5734 5727 5721 5714
5838 5839 5839 5841 5841 5841 5842 5843 5843 5842 5840 5839 5838 5838 5837 5836 5835 5833 5832 5830 5828 5826 5823 5821 5818 5814 5811 5807 5802 5798 5793 5787 5782 5776 5770 5763 5756 5749 5742 5735 5728 5721 5714 5707
5834 5835 5835 5836 5836 5836 5838 5838 5838 5838 5837 5836 5835 5834 5833 5832 5831 5830 5829 5827 5825 5822 5820 5817 5814 5810 5806 5802 5798 5793 5788 5783 5777 5770 5764 5757 5750 5743 5736 5729 5721 5714 5707 5700
5830 5831 5831 5831 5830 5831 5834 5833 5833 5832 5833 5832 5831 5830 5830 5829 5828 5826 5825 5823 5821 5818 5816 5813 5810 5806 5802 5798 5793 5789 5783 5777 5771 5765 5759 5752 5745 5737 5730 5723 5715 5708 5701 5694
5826 5826 5826 5825 5826 5827 5830 5830 5829 5828 5828 5828 5827 5827 5826 5824 5823 5822 5820 5818 5816 5814 5811 5808 5805 5801 5797 5793 5788 5783 5778 5772 5766 5760 5753 5746 5739 5732 5724 5717 5709 5702 5695 5688
5821 5821 5823 5821 5822 5822 5821 5822 5824 5824 5824 5823 5822 5822 5821 5820 5819 5817 5816 5814 5811 5809 5806 5803 5800 5796 5792 5788 5783 5778 5772 5767 5761 5754 5748 5741 5734 5726 5718 5711 5703 5696 5689 5682
5816 5816 5813 5813 5815 5816 5817 5817 5819 5820 5819 5818 5817 5816 5815 5815 5813 5812 5810 5808 5806 5804 5801 5797 5794 5790 5786 5782 5777 5772 5766 5761 5755 5748 5742 5735 5728 5720 5713 5705 5698 5690 5683 5677
5810 5809 5808 5808 5807 5811 5812 5813 5814 5814 5813 5812 5812 5810 5810 5809 5808 5806 5804 5802 5800 5797 5795 5791 5788 5784 5780 5775 5771 5766 5760 5754 5748 5743 5736 5729 5722 5714 5707 5699 5692 5684 5677 5671
5805 5804 5804 5804 5805 5806 5807 5807 5807 5807 5807 5806 5805 5804 5804 5803 5802 5800 5798 5796 5794 5791 5788 5785 5781 5777 5773 5769 5764 5759 5754 5748 5742 5736 5729 5722 5715 5708 5701 5693 5686 5679 5672 5665
5798 5799 5801 5802 5801 5802 5802 5802 5802 5802 5801 5800 5799 5798 5797 5796 5795 5794 5792 5789 5787 5784 5781 5778 5774 5770 5766 5762 5757 5752 5746 5741 5735 5729 5722 5716 5709 5702 5695 5688 5681 5673 5666 5660
5794 5795 5796 5795 5795 5796 5795 5796 5795 5795 5795 5794 5793 5792 5791 5789 5788 5786 5784 5782 5780 5777 5774 5770 5767 5763 5759 5754 5750 5744 5739 5733 5728 5722 5715 5709 5702 5695 5689 5682 5675 5668 5662 5655
5787 5788 5788 5788 5789 5789 5789 5789 5789 5788 5787 5787 5786 5785 5784 5782 5781 5779 5777 5774 5772 5769 5766 5762 5758 5755 5750 5746 5742 5737 5731 5726 5720 5714 5708 5701 5695 5688 5682 5676 5669 5663 5656 5650
5780 5780 5781 5782 5782 5782 5782 5782 5781 5781 5780 5779 5778 5777 5776 5775 5773 5771 5769 5766 5763 5760 5757 5753 5750 5746 5742 5737 5733 5728 5723 5718 5712 5706 5700 5694 5688 5681 5675 5669 5663 5657 5651 5645
5773 5773 5773 5774 5775 5775 5775 5774 5774 5773 5772 5772 5771 5770 5768 5767 5765 5762 5760 5757 5754 5751 5748 5744 5741 5737 5733 5728 5724 5719 5714 5709 5704 5698 5692 5686 5680 5674 5668 5662 5656 5651 5645 5639
5766 5766 5766 5766 5767 5767 5767 5766 5766 5765 5765 5764 5762 5761 5759 5757 5755 5753 5751 5748 5745 5742 5738 5735 5732 5728 5724 5719 5715 5710 5705 5700 5695 5690 5684 5678 5673 5667 5661 5655 5650 5644 5639 5634
5757 5758 5758 5758 5758 5758 5758 5758 5757 5757 5756 5755 5753 5752 5750 5748 5746 5744 5741 5738 5735 5732 5729 5726 5722 5718 5714 5710 5705 5701 5696 5691 5686 5681 5675 5670 5665 5659 5654 5648 5643 5638 5633 5628
5749 5750 5750 5750 5750 5749 5749 5749 5748 5747 5746 5745 5744 5742 5740 5738 5736 5734 5731 5728 5725 5722 5719 5716 5712 5708 5704 5700 5695 5691 5686 5681 5676 5671 5667 5662 5656 5651 5646 5641 5637 5632 5627 5623
5740 5741 5741 5741 5741 5740 5740 5739 5739 5738 5737 5735 5734 5732 5730 5728 5726 5723 5720 5717 5714 5711 5708 5705 5701 5697 5693 5689 5685 5680 5676 5671 5666 5662 5657 5652 5648 5643 5639 5634 5630 5625 5621 5617
5732 5732 5732 5731 5731 5731 5730 5730 5729 5727 5726 5725 5723 5721 5719 5717 5715 5712 5709 5706 5703 5700 5697 5693 5689 5686 5682 5678 5673 5669 5665 5660 5656 5651 5647 5642 5638 5634 5630 5626 5622 5619 5615 5611
5722 5722 5722 5722 5722 5721 5720 5719 5718 5717 5715 5713 5711 5709 5707 5705 5702 5699 5696 5693 5691 5688 5685 5681 5677 5673 5669 5665 5661 5657 5653 5649 5644 5640 5636 5632 5628 5625 5622 5618 5615 5612 5608 5605
5713 5713 5712 5712 5711 5710 5709 5708 5706 5705 5703 5701 5699 5697 5695 5693 5690 5687 5683 5680 5677 5674 5671 5667 5664 5660 5656 5652 5648 5645 5641 5637 5633 5629 5625 5622 5618 5616 5613 5610 5608 5605 5602 5599
5703 5702 5701 5701 5699 5698 5697 5696 5694 5692 5690 5688 5686 5683 5682 5679 5676 5673 5670 5667 5663 5660 5657 5653 5650 5647 5643 5639 5635 5631 5628 5624 5621 5617 5614 5611 5609 5606 5604 5602 5600 5598 5595 5593
5691 5690 5690 5689 5687 5686 5684 5683 5681 5679 5677 5674 5672 5669 5667 5664 5662 5659 5656 5653 5649 5646 5642 5639 5636 5633 5629 5625 5622 5618 5615 5612 5609 5606 5603 5601 5599 5597 5595 5593 5592 5590 5589 5587
5679 5678 5676 5675 5674 5673 5671 5669 5667 5665 5663 5660 5657 5655 5652 5649 5646 5643 5641 5638 5634 5631 5628 5625 5621 5618 5615 5612 5608 5605 5602 5599 5597 5595 5592 5591 5589 5588 5587 5585 5584 5583 5582 5581
5666 5664 5663 5662 5661 5659 5657 5655 5653 5651 5648 5646 5644 5641 5638 5635 5632 5629 5626 5623 5620 5617 5613 5610 5607 5604 5602 5598 5595 5592 5590 5587 5585 5583 5582 5581 5580 5579 5578 5578 5577 5576 5575 5574